Regional Weather Roundup
Issued by NWS

Home | Current Version | Previous Version | Text Only | Print | Product List | Glossary Off
Versions: 1 2 3 4 5 6 7 8 9 10 11 12 13 14 15 16 17 18 19 20 21 22 23 24 25 26 27 28 29 30 31 32 33 34 35 36 37 38 39 40 41 42 43 44 45 46 47 48 49 50

000
ASUS43 KLMK 011510
RWRKY
KENTUCKY REGIONAL WEATHER ROUNDUP
NATIONAL WEATHER SERVICE LOUISVILLE KY
1100 AM EDT WED JUL 01 2015

NOTE "FAIR" INDICATES FEW OR NO CLOUDS BELOW 12,000 FEET
WITH NO SIGNIFICANT WEATHER AND/OR OBSTRUCTIONS TO VISIBILITY.

KYZ001>023-026-027-061>063-070>075-011600-
WESTERN AND SOUTH CENTRAL KENTUCKY

CITY           SKY/WX    TMP DP  RH WIND       PRES   REMARKS
PADUCAH        LGT RAIN  71  68  90 W7        29.98R FOG
HENDERSON      CLOUDY    73  70  88 W7        29.94R
OWENSBORO      CLOUDY    76  72  87 W7        29.96R FOG
HOPKINSVILLE   CLOUDY    75  71  87 SW6       29.96S
BOWLING GREEN  LGT RAIN  76  71  85 SW8       29.97R
GLASGOW        CLOUDY    75  72  92 SW8       29.97R
$$

KYZ024-025-028>034-038-045-046-053-011600-
NORTH CENTRAL KENTUCKY

CITY           SKY/WX    TMP DP  RH WIND       PRES   REMARKS
LOUISVILLE/SDF CLOUDY    76  68  76 CALM      29.94R
LOUISVILLE/LOU PTSUNNY   75  68  78 CALM      29.94S HAZE
FORT KNOX      PTSUNNY   74  70  85 SW5       29.93S
$$

KYZ035>037-039>044-047>052-055>060-089>105-011600-
NORTHEAST KENTUCKY

CITY           SKY/WX    TMP DP  RH WIND       PRES   REMARKS
LEXINGTON      CLOUDY    75  69  81 W6        29.96S HAZE
COVINGTON      PTSUNNY   73  60  63 N3        29.94F
FRANKFORT      CLOUDY    73  67  81 CALM      29.95S HAZE
$$

KYZ054-064>069-076>088-106>120-011600-
SOUTHEAST KENTUCKY

CITY           SKY/WX    TMP DP  RH WIND       PRES   REMARKS
JACKSON        PTSUNNY   74  68  81 MISG      29.99F
LONDON         PTSUNNY   76  67  73 SW7       29.99S
SOMERSET       CLOUDY    73  72  94 W9        29.98F
MIDDLESBORO    PTSUNNY   77  69  76 S5        30.00F
MONTICELLO     PTSUNNY   77  72  84 SW8       30.01S
$$




USA.gov is the U.S. government's official web portal to all federal, state and local government web resources and services.